User: anonymous   Login
Location: Unspecified
(0.0000°N, 0.0000°E)
Time: 19:31:02
(UTC+00:00)
Language:

Spot 3 - Orbit

View from above orbital plane
View from above orbital plane
View from above satellite
View from above satellite

Ground track
Ground track

The orbit data is extracted from the following two-line orbital elements,

1 22823U 93061A   18017.94289829 -.00000028 +00000-0 +86802-5 0  9994
2 22823 098.9775 348.7224 0017151 010.7452 349.4087 14.19187027258727
Epoch (UTC): 17 January 2018 22:37:46
Eccentricity: 0.0017151
inclination: 98.9775°
perigee height: 816 km
apogee height: 840 km
right ascension of ascending node: 348.7224°
argument of perigee: 10.7452°
revolutions per day: 14.19187027
mean anomaly at epoch: 349.4087°
orbit number at epoch: 25872

The dashed part of the orbit path shows where the satellite is in the earth's shadow,  

DLR